星链-34316 (STARLINK-34316)

导读 | 豆包AI

STARLINK-34316是美国于2025年6月28日发射的星链系列卫星,属于SpaceX星链项目部署的低轨卫星,该项目旨在构建全球卫星互联网星座,为全球各地用户提供高速宽带互联网接入服务,补充地面网络覆盖盲区,推动全球互联网络覆盖进一步完善。

基本信息
目录编号:
64707
目录名称:
STARLINK-34316
国际标识:
2025-142M
轨道中心:
EARTH
卫星名称:
星链-34316
卫星全名:
星链-34316 (STARLINK-34316)
卫星状态:
在轨 (已飞行305 天)
发射日期:
2025-06-28 UTC
国别 :
美国 (US)
星等 :
--
轨道信息
数据来源 国际轨道数据 AOE轨道数据
星历时间 2026-04-29T13:44:07+0800
10小时前
查看轨道信息
2026-04-23T04:00:00+0800
6天前
查看轨道信息
半长轴 6950.171km 6950.165km
偏心率 0.0004145 0.0003276
轨道倾角 70.002° 69.992°
近地点辐角 266.170° 270.335°
升交点赤经 186.959° 203.112°
平近点角 93.899° 107.651°
近地点 569.153km 569.751km
远地点 574.915km 574.305km
周期 96.107分钟 96.106分钟
每日圈数 14.983374 14.983393
详细信息
固有亮度:
5
最大亮度:
2.5
卫星平台:
Starlink V1.0
覆盖范围:
全球
运营商:
太空探索技术公司
运营商所在国:
美国
制造商(研发单位):
太空探索技术公司
制造商所在国:
美国
使用方式:
暂无
卫星简介
Starlink 计划是 SpaceX 推出的全球卫星互联网项目,通过发射低轨道卫星,为全球尤其是偏远地区提供高速、低延迟的互联网服务。自 2019 年起,Starlink 已部署数千颗卫星,旨在缩小全球数字鸿沟,推动互联网普及。该项目还为军事、航空等行业提供通信支持,带来广泛经济效益。
2D轨道图
3D轨道图
轨道高度分析图
轨道倾角分析图
轨道综合分析图
查看轨道综合分析图